ROA9187 SCNT-SCEL

Flight info

Callsign ROA9187
Flight time 3h 2m
Altitude 34000
Route KOLPU3A KOLPU UQ802 KORKO/N0458F360 UQ802 EROLO EROLO8A
Aircraft A320/M-SDE3FGHIRWY/LB1

Departure

Time 2026-04-21 21:37
Airport Lieutenant Julio Gallardo Airport (SCNT)

Arrival

Time 2026-04-22 00:39
Airport Comodoro Arturo Merino Benítez International Airport (SCEL)
Time Latitude Longitude Altitude Speed Heading
2026-04-21 21:27 -51.66871 -72.52841 237 ft 0 kts 78°
2026-04-21 21:30 -51.66878 -72.52829 233 ft 1 kts 166°
2026-04-21 21:30 -51.66882 -72.52868 236 ft 5 kts 265°
2026-04-21 21:31 -51.66888 -72.52924 232 ft 5 kts 249°
2026-04-21 21:31 -51.66924 -72.52966 231 ft 0 kts 212°
2026-04-21 21:33 -51.66950 -72.52992 234 ft 7 kts 212°
2026-04-21 21:33 -51.66998 -72.53018 231 ft 7 kts 172°
2026-04-21 21:33 -51.67040 -72.52940 231 ft 13 kts 120°
2026-04-21 21:34 -51.67101 -72.52772 232 ft 20 kts 122°
2026-04-21 21:34 -51.67175 -72.52577 232 ft 21 kts 123°
2026-04-21 21:34 -51.67249 -72.52361 232 ft 23 kts 116°
2026-04-21 21:34 -51.67327 -72.52124 230 ft 25 kts 119°
2026-04-21 21:35 -51.67414 -72.51875 230 ft 26 kts 120°
2026-04-21 21:35 -51.67489 -72.51660 231 ft 16 kts 113°
2026-04-21 21:35 -51.67500 -72.51513 231 ft 9 kts 103°
2026-04-21 21:35 -51.67539 -72.51463 231 ft 7 kts 187°
2026-04-21 21:36 -51.67544 -72.51515 231 ft 6 kts 301°
2026-04-21 21:36 -51.67543 -72.51519 231 ft 0 kts 301°
2026-04-21 21:36 -51.67543 -72.51520 231 ft 2 kts 301°
2026-04-21 21:37 -51.67407 -72.51903 231 ft 81 kts 299°
2026-04-21 21:37 -51.67016 -72.53017 237 ft 147 kts 298°
2026-04-21 21:37 -51.66495 -72.54511 921 ft 153 kts 299°
2026-04-21 21:37 -51.65961 -72.56004 1714 ft 158 kts 301°
2026-04-21 21:38 -51.65381 -72.57610 2049 ft 176 kts 301°
2026-04-21 21:38 -51.64732 -72.59424 2286 ft 198 kts 301°
2026-04-21 21:38 -51.63999 -72.61485 2535 ft 222 kts 301°
2026-04-21 21:38 -51.63190 -72.63763 2916 ft 243 kts 301°
2026-04-21 21:39 -51.62341 -72.66155 3709 ft 247 kts 301°
2026-04-21 21:39 -51.61488 -72.68544 4694 ft 244 kts 303°
2026-04-21 21:39 -51.60306 -72.70432 5628 ft 243 kts 332°
2026-04-21 21:39 -51.58676 -72.71181 6539 ft 246 kts 347°
2026-04-21 21:40 -51.56961 -72.71435 7359 ft 249 kts 352°
2026-04-21 21:40 -51.55220 -72.71570 8156 ft 251 kts 352°
2026-04-21 21:40 -51.53466 -72.71726 8956 ft 253 kts 352°
2026-04-21 21:40 -51.51705 -72.71942 9701 ft 255 kts 351°
2026-04-21 21:41 -51.49914 -72.72219 10274 ft 264 kts 350°
2026-04-21 21:41 -51.48006 -72.72565 10437 ft 287 kts 349°
2026-04-21 21:41 -51.45960 -72.73064 10562 ft 307 kts 344°
2026-04-21 21:41 -51.43868 -72.74170 10697 ft 326 kts 334°
2026-04-21 21:42 -51.41857 -72.75978 11099 ft 335 kts 327°
2026-04-21 21:42 -51.39878 -72.77974 11735 ft 338 kts 327°
2026-04-21 21:42 -51.37871 -72.79969 12390 ft 340 kts 328°
2026-04-21 21:42 -51.35846 -72.81967 12993 ft 343 kts 328°
2026-04-21 21:43 -51.33807 -72.83975 13586 ft 346 kts 328°
2026-04-21 21:43 -51.31755 -72.85996 14185 ft 346 kts 328°
2026-04-21 21:43 -51.29705 -72.88019 14782 ft 346 kts 328°
2026-04-21 21:43 -51.27627 -72.90070 15347 ft 347 kts 328°
2026-04-21 21:44 -51.25568 -72.92103 15932 ft 348 kts 328°
2026-04-21 21:44 -51.23506 -72.94137 16503 ft 349 kts 328°
2026-04-21 21:44 -51.21445 -72.96174 17089 ft 349 kts 328°
2026-04-21 21:44 -51.19456 -72.98399 17651 ft 350 kts 322°
2026-04-21 21:45 -51.17567 -73.00845 18150 ft 350 kts 321°
2026-04-21 21:45 -51.15672 -73.03290 18634 ft 350 kts 322°
2026-04-21 21:45 -51.13774 -73.05733 19121 ft 350 kts 322°
2026-04-21 21:45 -51.11876 -73.08168 19595 ft 351 kts 322°
2026-04-21 21:46 -51.09978 -73.10601 20052 ft 351 kts 322°
2026-04-21 21:46 -51.08077 -73.13037 20516 ft 351 kts 322°
2026-04-21 21:46 -51.06177 -73.15466 21173 ft 344 kts 322°
2026-04-21 21:46 -51.04374 -73.17771 22160 ft 333 kts 322°
2026-04-21 21:47 -51.02601 -73.20040 23149 ft 320 kts 322°
2026-04-21 21:47 -51.00888 -73.22231 23821 ft 314 kts 322°
2026-04-21 21:47 -50.99190 -73.24399 24289 ft 313 kts 322°
2026-04-21 21:47 -50.97490 -73.26566 24674 ft 314 kts 322°
2026-04-21 21:48 -50.95786 -73.28739 25026 ft 314 kts 322°
2026-04-21 21:48 -50.94076 -73.30912 25341 ft 315 kts 322°
2026-04-21 21:48 -50.92357 -73.33089 25764 ft 313 kts 322°
2026-04-21 21:48 -50.90697 -73.35189 26609 ft 299 kts 322°
2026-04-21 21:49 -50.89095 -73.37218 27334 ft 293 kts 322°
2026-04-21 21:49 -50.87515 -73.39221 27949 ft 288 kts 321°
2026-04-21 21:49 -50.85934 -73.41228 28457 ft 286 kts 321°
2026-04-21 21:49 -50.84388 -73.43189 28952 ft 283 kts 321°
2026-04-21 21:50 -50.82848 -73.45136 29325 ft 284 kts 321°
2026-04-21 21:50 -50.81286 -73.47106 29507 ft 290 kts 321°
2026-04-21 21:50 -50.79682 -73.49131 29536 ft 300 kts 321°
2026-04-21 21:51 -50.76317 -73.53375 29544 ft 319 kts 321°
2026-04-21 21:51 -50.72727 -73.57903 29548 ft 336 kts 321°
2026-04-21 21:52 -50.68981 -73.62600 29666 ft 348 kts 321°
2026-04-21 21:52 -50.67090 -73.64966 29998 ft 346 kts 321°
2026-04-21 21:52 -50.65206 -73.67319 30341 ft 346 kts 321°
2026-04-21 21:52 -50.63319 -73.69673 30640 ft 345 kts 321°
2026-04-21 21:53 -50.61435 -73.72020 30894 ft 345 kts 321°
2026-04-21 21:53 -50.59552 -73.74363 31161 ft 345 kts 321°
2026-04-21 21:53 -50.57669 -73.76707 31422 ft 345 kts 321°
2026-04-21 21:53 -50.55787 -73.79051 31639 ft 345 kts 321°
2026-04-21 21:54 -50.53903 -73.81403 31899 ft 346 kts 321°
2026-04-21 21:54 -50.52017 -73.83749 32116 ft 346 kts 321°
2026-04-21 21:54 -50.50127 -73.86089 32299 ft 347 kts 321°
2026-04-21 21:54 -50.48869 -73.87642 32453 ft 347 kts 321°
2026-04-21 21:55 -50.46354 -73.90748 32817 ft 348 kts 320°
2026-04-21 21:55 -50.44453 -73.93098 33045 ft 349 kts 320°
2026-04-21 21:55 -50.42544 -73.95458 33310 ft 350 kts 320°
2026-04-21 21:55 -50.40549 -73.97657 33512 ft 352 kts 326°
2026-04-21 21:56 -50.38418 -73.99586 33559 ft 355 kts 327°
2026-04-21 21:56 -50.34577 -74.02012 33566 ft 367 kts 342°
2026-04-21 21:56 -50.31992 -74.02257 33567 ft 381 kts 354°
2026-04-21 21:57 -50.29335 -74.01910 33568 ft 383 kts 355°
2026-04-21 21:57 -50.24017 -74.01111 33570 ft 383 kts 355°
2026-04-21 21:58 -50.18709 -74.00342 33579 ft 382 kts 355°
2026-04-21 21:58 -50.13419 -73.99643 33570 ft 382 kts 355°
2026-04-21 21:59 -50.08129 -73.98951 33564 ft 381 kts 354°
2026-04-21 21:59 -50.02847 -73.98258 33565 ft 381 kts 355°
2026-04-21 22:00 -49.97572 -73.97572 33579 ft 380 kts 354°
2026-04-21 22:00 -49.92305 -73.96878 33587 ft 379 kts 354°
2026-04-21 22:01 -49.87052 -73.96179 33593 ft 379 kts 354°
2026-04-21 22:01 -49.81799 -73.95491 33604 ft 378 kts 354°
2026-04-21 22:02 -49.76560 -73.94807 33599 ft 377 kts 354°
2026-04-21 22:02 -49.71331 -73.94127 33611 ft 377 kts 354°
2026-04-21 22:02 -49.68730 -73.93792 33789 ft 376 kts 354°
2026-04-21 22:03 -49.66117 -73.93457 34028 ft 376 kts 354°
2026-04-21 22:03 -49.63500 -73.93121 34232 ft 378 kts 355°
2026-04-21 22:03 -49.60871 -73.92781 34399 ft 380 kts 355°
2026-04-21 22:03 -49.58227 -73.92440 34545 ft 382 kts 355°
2026-04-21 22:04 -49.55571 -73.92098 34698 ft 384 kts 355°
2026-04-21 22:04 -49.52904 -73.91751 34829 ft 385 kts 355°
2026-04-21 22:04 -49.50232 -73.91405 34958 ft 386 kts 355°
2026-04-21 22:04 -49.47543 -73.91058 35073 ft 387 kts 355°
2026-04-21 22:05 -49.44862 -73.90713 35203 ft 388 kts 355°
2026-04-21 22:05 -49.42166 -73.90365 35327 ft 389 kts 355°
2026-04-21 22:05 -49.39463 -73.90016 35444 ft 389 kts 355°
2026-04-21 22:05 -49.36773 -73.89669 35595 ft 388 kts 355°
2026-04-21 22:06 -49.34069 -73.89323 35637 ft 392 kts 355°
2026-04-21 22:06 -49.28603 -73.88621 35647 ft 395 kts 356°
2026-04-21 22:07 -49.23120 -73.87903 35646 ft 395 kts 355°
2026-04-21 22:07 -49.17634 -73.87204 35657 ft 396 kts 355°
2026-04-21 22:08 -49.12143 -73.86507 35662 ft 396 kts 355°
2026-04-21 22:08 -49.06689 -73.85818 35653 ft 395 kts 355°
2026-04-21 22:09 -49.01209 -73.85131 35662 ft 396 kts 355°
2026-04-21 22:09 -48.95719 -73.84443 35660 ft 396 kts 355°
2026-04-21 22:10 -48.90225 -73.83742 35660 ft 395 kts 356°
2026-04-21 22:10 -48.84738 -73.83039 35670 ft 396 kts 356°
2026-04-21 22:11 -48.79235 -73.82348 35684 ft 396 kts 355°
2026-04-21 22:11 -48.73741 -73.81677 35687 ft 396 kts 355°
2026-04-21 22:12 -48.68243 -73.80991 35692 ft 396 kts 356°
2026-04-21 22:12 -48.62754 -73.80299 35688 ft 396 kts 356°
2026-04-21 22:13 -48.57256 -73.79618 35688 ft 396 kts 355°
2026-04-21 22:13 -48.51775 -73.78939 35674 ft 395 kts 355°
2026-04-21 22:14 -48.46279 -73.78247 35690 ft 397 kts 355°
2026-04-21 22:14 -48.40775 -73.77559 35681 ft 397 kts 355°
2026-04-21 22:15 -48.35280 -73.76876 35682 ft 395 kts 355°
2026-04-21 22:15 -48.29792 -73.76213 35700 ft 397 kts 355°
2026-04-21 22:16 -48.24269 -73.75550 35703 ft 397 kts 355°
2026-04-21 22:16 -48.18747 -73.74866 35698 ft 398 kts 355°
2026-04-21 22:17 -48.13223 -73.74187 35715 ft 400 kts 355°
2026-04-21 22:17 -48.07666 -73.73518 35709 ft 400 kts 355°
2026-04-21 22:18 -48.02119 -73.72843 35721 ft 400 kts 355°
2026-04-21 22:18 -47.96617 -73.72168 35708 ft 400 kts 355°
2026-04-21 22:19 -47.91074 -73.71503 35719 ft 399 kts 355°
2026-04-21 22:19 -47.85534 -73.70852 35714 ft 399 kts 355°
2026-04-21 22:20 -47.79969 -73.70183 35715 ft 400 kts 355°
2026-04-21 22:20 -47.74419 -73.69507 35710 ft 400 kts 355°
2026-04-21 22:21 -47.68889 -73.68846 35729 ft 401 kts 355°
2026-04-21 22:21 -47.63338 -73.68179 35722 ft 400 kts 355°
2026-04-21 22:22 -47.57766 -73.67515 35732 ft 401 kts 355°
2026-04-21 22:22 -47.52198 -73.66846 35722 ft 401 kts 355°
2026-04-21 22:23 -47.46641 -73.66184 35740 ft 401 kts 355°
2026-04-21 22:23 -47.41104 -73.65528 35731 ft 402 kts 355°
2026-04-21 22:24 -47.35502 -73.64859 35754 ft 402 kts 355°
2026-04-21 22:24 -47.29965 -73.64217 35751 ft 402 kts 355°
2026-04-21 22:25 -47.24371 -73.63565 35758 ft 402 kts 355°
2026-04-21 22:25 -47.18790 -73.62895 35757 ft 402 kts 355°
2026-04-21 22:26 -47.13219 -73.62237 35760 ft 402 kts 355°
2026-04-21 22:26 -47.07647 -73.61598 35763 ft 403 kts 355°
2026-04-21 22:27 -47.02052 -73.60938 35769 ft 403 kts 355°
2026-04-21 22:27 -46.96438 -73.60399 35779 ft 403 kts 353°
2026-04-21 22:28 -46.90873 -73.60168 35786 ft 402 kts 352°
2026-04-21 22:28 -46.85275 -73.59983 35777 ft 402 kts 353°
2026-04-21 22:29 -46.79682 -73.59751 35784 ft 402 kts 353°
2026-04-21 22:29 -46.74084 -73.59474 35778 ft 402 kts 353°
2026-04-21 22:30 -46.68489 -73.59205 35787 ft 403 kts 353°
2026-04-21 22:30 -46.62887 -73.58940 35773 ft 403 kts 353°
2026-04-21 22:31 -46.57275 -73.58686 35784 ft 404 kts 353°
2026-04-21 22:31 -46.51659 -73.58430 35781 ft 404 kts 353°
2026-04-21 22:32 -46.46036 -73.58169 35780 ft 404 kts 353°
2026-04-21 22:32 -46.40399 -73.57895 35784 ft 406 kts 353°
2026-04-21 22:33 -46.34754 -73.57632 35792 ft 406 kts 353°
2026-04-21 22:33 -46.29136 -73.57383 35785 ft 406 kts 353°
2026-04-21 22:34 -46.23487 -73.57112 35798 ft 407 kts 353°
2026-04-21 22:34 -46.17824 -73.56847 35790 ft 407 kts 353°
2026-04-21 22:35 -46.12145 -73.56590 35803 ft 408 kts 353°
2026-04-21 22:35 -46.06457 -73.56332 35816 ft 410 kts 353°
2026-04-21 22:36 -45.97897 -73.55936 35811 ft 410 kts 353°
2026-04-21 22:36 -45.92187 -73.55680 35828 ft 411 kts 353°
2026-04-21 22:37 -45.86461 -73.55428 35812 ft 411 kts 353°
2026-04-21 22:37 -45.80739 -73.55169 35823 ft 412 kts 353°
2026-04-21 22:38 -45.77872 -73.55039 36287 ft 412 kts 353°
2026-04-21 22:38 -45.75058 -73.54906 36146 ft 406 kts 354°
2026-04-21 22:38 -45.72279 -73.54763 35961 ft 395 kts 354°
2026-04-21 22:38 -45.70436 -73.54667 35871 ft 390 kts 354°
2026-04-21 22:39 -45.65035 -73.54417 35876 ft 386 kts 353°
2026-04-21 22:39 -45.58810 -73.54157 35873 ft 386 kts 353°
2026-04-21 22:40 -45.54332 -73.53966 35877 ft 386 kts 353°
2026-04-21 22:40 -45.48932 -73.53725 35879 ft 386 kts 354°
2026-04-21 22:41 -45.43574 -73.53475 35877 ft 386 kts 354°
2026-04-21 22:41 -45.38196 -73.53237 35881 ft 386 kts 353°
2026-04-21 22:42 -45.32829 -73.53004 35884 ft 386 kts 354°
2026-04-21 22:42 -45.27460 -73.52761 35881 ft 386 kts 354°
2026-04-21 22:43 -45.22090 -73.52523 35883 ft 386 kts 354°
2026-04-21 22:43 -45.16726 -73.52280 35884 ft 385 kts 354°
2026-04-21 22:44 -45.11350 -73.51828 35889 ft 388 kts 356°
2026-04-21 22:44 -45.05960 -73.51074 35886 ft 389 kts 357°
2026-04-21 22:45 -45.00570 -73.50314 35892 ft 389 kts 357°
2026-04-21 22:45 -44.95180 -73.49618 35894 ft 389 kts 356°
2026-04-21 22:46 -44.89792 -73.48960 35901 ft 389 kts 356°
2026-04-21 22:46 -44.84394 -73.48298 35907 ft 389 kts 357°
2026-04-21 22:47 -44.78990 -73.47622 35908 ft 389 kts 357°
2026-04-21 22:47 -44.73630 -73.46954 35903 ft 389 kts 357°
2026-04-21 22:48 -44.68235 -73.46288 35912 ft 389 kts 357°
2026-04-21 22:48 -44.62841 -73.45623 35908 ft 389 kts 357°
2026-04-21 22:49 -44.57447 -73.44953 35911 ft 389 kts 357°
2026-04-21 22:49 -44.52050 -73.44295 35915 ft 389 kts 357°
2026-04-21 22:50 -44.46656 -73.43628 35918 ft 389 kts 357°
2026-04-21 22:50 -44.41260 -73.42970 35919 ft 389 kts 357°
2026-04-21 22:51 -44.35851 -73.42308 35927 ft 390 kts 357°
2026-04-21 22:51 -44.30462 -73.41647 35927 ft 390 kts 357°
2026-04-21 22:52 -44.25057 -73.40980 35928 ft 390 kts 357°
2026-04-21 22:52 -44.19669 -73.40319 35930 ft 390 kts 357°
2026-04-21 22:53 -44.14256 -73.39659 35932 ft 390 kts 357°
2026-04-21 22:53 -44.08857 -73.39008 35933 ft 390 kts 357°
2026-04-21 22:54 -44.03431 -73.38350 35932 ft 390 kts 357°
2026-04-21 22:54 -43.98039 -73.37698 35938 ft 390 kts 357°
2026-04-21 22:55 -43.92618 -73.37045 35935 ft 391 kts 357°
2026-04-21 22:55 -43.87203 -73.36398 35945 ft 391 kts 357°
2026-04-21 22:56 -43.81800 -73.35748 35951 ft 391 kts 357°
2026-04-21 22:56 -43.76392 -73.35104 35314 ft 393 kts 360°
2026-04-21 22:57 -43.73631 -73.34775 35490 ft 394 kts 359°
2026-04-21 22:57 -43.70907 -73.34445 35649 ft 396 kts 359°
2026-04-21 22:57 -43.68163 -73.34113 35822 ft 397 kts 360°
2026-04-21 22:57 -43.65415 -73.33780 35971 ft 399 kts 360°
2026-04-21 22:58 -43.59777 -73.33108 35969 ft 411 kts 360°
2026-04-21 22:58 -43.54013 -73.32427 35985 ft 421 kts
2026-04-21 22:59 -43.48123 -73.31738 35980 ft 432 kts
2026-04-21 22:59 -43.42031 -73.31006 35989 ft 442 kts
2026-04-21 23:00 -43.35850 -73.30278 35980 ft 450 kts
2026-04-21 23:00 -43.29596 -73.29540 35995 ft 453 kts
2026-04-21 23:01 -43.23311 -73.28788 35990 ft 453 kts
2026-04-21 23:01 -43.17042 -73.28051 36002 ft 455 kts
2026-04-21 23:02 -43.10722 -73.27323 36497 ft 455 kts
2026-04-21 23:02 -43.07570 -73.26989 36058 ft 454 kts
2026-04-21 23:02 -43.04421 -73.26679 36155 ft 455 kts
2026-04-21 23:03 -43.01254 -73.26372 36017 ft 456 kts
2026-04-21 23:03 -42.98095 -73.26044 36032 ft 456 kts
2026-04-21 23:03 -42.91763 -73.25360 36028 ft 456 kts
2026-04-21 23:04 -42.85468 -73.24683 36048 ft 456 kts
2026-04-21 23:04 -42.79142 -73.24004 36044 ft 456 kts
2026-04-21 23:05 -42.72772 -73.23339 36049 ft 456 kts
2026-04-21 23:05 -42.66491 -73.22690 36046 ft 456 kts
2026-04-21 23:06 -42.60122 -73.22017 36053 ft 456 kts
2026-04-21 23:06 -42.53798 -73.21358 36050 ft 456 kts
2026-04-21 23:07 -42.47517 -73.20718 36053 ft 456 kts
2026-04-21 23:07 -42.41191 -73.20067 36062 ft 456 kts
2026-04-21 23:08 -42.34859 -73.19364 36069 ft 456 kts
2026-04-21 23:08 -42.28536 -73.18630 36073 ft 456 kts
2026-04-21 23:09 -42.22206 -73.17912 36077 ft 456 kts
2026-04-21 23:09 -42.15873 -73.17217 36078 ft 456 kts
2026-04-21 23:10 -42.09538 -73.16521 36091 ft 457 kts
2026-04-21 23:10 -42.03202 -73.15811 36085 ft 457 kts
2026-04-21 23:11 -41.96871 -73.15103 36094 ft 456 kts
2026-04-21 23:11 -41.90546 -73.14409 36093 ft 456 kts
2026-04-21 23:12 -41.84216 -73.13718 36097 ft 456 kts
2026-04-21 23:12 -41.77875 -73.13012 36099 ft 457 kts
2026-04-21 23:13 -41.71542 -73.12309 36112 ft 457 kts
2026-04-21 23:13 -41.65245 -73.11625 36114 ft 457 kts
2026-04-21 23:14 -41.58916 -73.10930 36121 ft 457 kts
2026-04-21 23:14 -41.52587 -73.10238 36119 ft 456 kts
2026-04-21 23:15 -41.46234 -73.09555 36123 ft 456 kts
2026-04-21 23:15 -41.39921 -73.08784 36118 ft 457 kts
2026-04-21 23:16 -41.33609 -73.07600 36121 ft 458 kts
2026-04-21 23:16 -41.27339 -73.06283 36118 ft 458 kts
2026-04-21 23:17 -41.21020 -73.05039 36125 ft 457 kts
2026-04-21 23:17 -41.14739 -73.03881 36130 ft 457 kts
2026-04-21 23:18 -41.08447 -73.02729 36143 ft 458 kts
2026-04-21 23:18 -41.04248 -73.01962 36140 ft 458 kts
2026-04-21 23:19 -41.00241 -73.01240 36152 ft 458 kts
2026-04-21 23:19 -40.93953 -73.00075 36144 ft 458 kts
2026-04-21 23:20 -40.87638 -72.98901 36158 ft 458 kts
2026-04-21 23:20 -40.82394 -72.97933 36157 ft 458 kts
2026-04-21 23:21 -40.75036 -72.96591 36167 ft 458 kts
2026-04-21 23:21 -40.69730 -72.95624 36172 ft 458 kts
2026-04-21 23:22 -40.63430 -72.94478 36170 ft 458 kts
2026-04-21 23:22 -40.57114 -72.93333 36168 ft 458 kts
2026-04-21 23:23 -40.50800 -72.92187 36171 ft 458 kts
2026-04-21 23:23 -40.44465 -72.91035 36168 ft 458 kts
2026-04-21 23:24 -40.38179 -72.89896 36173 ft 458 kts
2026-04-21 23:24 -40.31837 -72.88757 36173 ft 459 kts
2026-04-21 23:25 -40.25526 -72.87710 36180 ft 458 kts
2026-04-21 23:25 -40.19162 -72.86710 36183 ft 459 kts
2026-04-21 23:26 -40.12820 -72.85693 36188 ft 459 kts
2026-04-21 23:26 -40.06520 -72.84658 36188 ft 459 kts
2026-04-21 23:27 -40.00161 -72.83618 36196 ft 459 kts
2026-04-21 23:27 -39.93827 -72.82589 36199 ft 459 kts
2026-04-21 23:28 -39.87492 -72.81567 36199 ft 459 kts
2026-04-21 23:28 -39.81153 -72.80546 36202 ft 459 kts
2026-04-21 23:29 -39.74811 -72.79526 36201 ft 459 kts
2026-04-21 23:29 -39.68474 -72.78488 36199 ft 459 kts
2026-04-21 23:30 -39.62176 -72.77338 36199 ft 459 kts
2026-04-21 23:30 -39.59078 -72.76743 36988 ft 436 kts
2026-04-21 23:30 -39.56095 -72.76152 37460 ft 429 kts
2026-04-21 23:31 -39.53155 -72.75558 37744 ft 426 kts
2026-04-21 23:31 -39.50211 -72.74993 37513 ft 427 kts
2026-04-21 23:31 -39.47279 -72.74484 37190 ft 424 kts
2026-04-21 23:31 -39.44353 -72.74000 36874 ft 424 kts
2026-04-21 23:32 -39.41429 -72.73512 36598 ft 424 kts
2026-04-21 23:32 -39.38505 -72.73010 36339 ft 424 kts
2026-04-21 23:32 -39.35585 -72.72492 36176 ft 423 kts
2026-04-21 23:32 -39.32663 -72.71965 36209 ft 424 kts
2026-04-21 23:33 -39.26808 -72.70892 36209 ft 425 kts
2026-04-21 23:33 -39.20941 -72.69820 36209 ft 426 kts
2026-04-21 23:34 -39.15069 -72.68761 36214 ft 426 kts
2026-04-21 23:34 -39.09184 -72.67699 36211 ft 427 kts
2026-04-21 23:35 -39.03291 -72.66639 36211 ft 427 kts
2026-04-21 23:35 -38.97429 -72.65598 36205 ft 428 kts
2026-04-21 23:36 -38.91527 -72.64542 36205 ft 428 kts
2026-04-21 23:36 -38.85634 -72.63165 36203 ft 433 kts
2026-04-21 23:37 -38.79766 -72.61380 36205 ft 434 kts
2026-04-21 23:37 -38.73882 -72.59572 36198 ft 434 kts
2026-04-21 23:38 -38.67988 -72.57872 36198 ft 434 kts
2026-04-21 23:38 -38.62084 -72.56222 36194 ft 435 kts
2026-04-21 23:39 -38.56171 -72.54559 36197 ft 435 kts
2026-04-21 23:39 -38.50252 -72.52877 36198 ft 436 kts
2026-04-21 23:40 -38.44365 -72.51205 36201 ft 436 kts
2026-04-21 23:40 -38.38433 -72.49531 36204 ft 437 kts
2026-04-21 23:41 -38.32486 -72.47858 36206 ft 437 kts
2026-04-21 23:41 -38.26538 -72.46186 36202 ft 438 kts
2026-04-21 23:42 -38.20581 -72.44515 36203 ft 439 kts
2026-04-21 23:42 -38.14616 -72.42840 36205 ft 439 kts
2026-04-21 23:43 -38.08637 -72.41162 36213 ft 440 kts
2026-04-21 23:43 -38.02655 -72.39501 36211 ft 440 kts
2026-04-21 23:44 -37.96669 -72.37843 36208 ft 441 kts
2026-04-21 23:44 -37.90674 -72.36169 36205 ft 442 kts
2026-04-21 23:45 -37.81656 -72.33655 36204 ft 442 kts
2026-04-21 23:46 -37.75679 -72.32002 36201 ft 443 kts
2026-04-21 23:46 -37.69648 -72.30340 36200 ft 443 kts
2026-04-21 23:47 -37.63614 -72.28678 36197 ft 444 kts
2026-04-21 23:47 -37.57592 -72.26882 36196 ft 446 kts
2026-04-21 23:48 -37.51568 -72.24989 36194 ft 446 kts
2026-04-21 23:48 -37.45527 -72.23117 36198 ft 447 kts
2026-04-21 23:49 -37.39479 -72.21279 36197 ft 447 kts
2026-04-21 23:49 -37.33422 -72.19446 36192 ft 448 kts
2026-04-21 23:50 -37.27354 -72.17602 36194 ft 448 kts
2026-04-21 23:50 -37.21285 -72.15758 36196 ft 449 kts
2026-04-21 23:51 -37.15202 -72.13922 36198 ft 450 kts
2026-04-21 23:51 -37.09257 -72.12130 36197 ft 450 kts
2026-04-21 23:52 -37.03211 -72.10304 36202 ft 450 kts
2026-04-21 23:52 -36.97114 -72.08466 36200 ft 451 kts
2026-04-21 23:53 -36.91006 -72.06633 36205 ft 451 kts
2026-04-21 23:53 -36.84909 -72.04806 36207 ft 450 kts
2026-04-21 23:54 -36.78812 -72.02984 36205 ft 450 kts
2026-04-21 23:54 -36.72725 -72.01161 36200 ft 450 kts
2026-04-21 23:55 -36.66632 -71.99338 36187 ft 450 kts
2026-04-21 23:55 -36.60551 -71.97527 36181 ft 450 kts
2026-04-21 23:56 -36.54462 -71.95724 36179 ft 450 kts
2026-04-21 23:56 -36.48406 -71.93928 36181 ft 451 kts
2026-04-21 23:57 -36.42301 -71.92115 36185 ft 451 kts
2026-04-21 23:57 -36.36195 -71.90308 36191 ft 451 kts
2026-04-21 23:58 -36.30087 -71.88503 36197 ft 451 kts
2026-04-21 23:58 -36.23977 -71.86699 36198 ft 451 kts
2026-04-21 23:59 -36.17859 -71.84893 36198 ft 451 kts
2026-04-21 23:59 -36.11741 -71.83092 36194 ft 452 kts
2026-04-22 00:00 -36.05628 -71.81301 36194 ft 452 kts
2026-04-22 00:00 -35.99499 -71.79511 36195 ft 452 kts
2026-04-22 00:01 -35.93366 -71.77715 36198 ft 453 kts
2026-04-22 00:01 -35.87238 -71.75911 36202 ft 453 kts
2026-04-22 00:02 -35.81111 -71.74129 36193 ft 452 kts
2026-04-22 00:02 -35.74978 -71.72352 36189 ft 452 kts
2026-04-22 00:03 -35.69884 -71.70875 36192 ft 453 kts
2026-04-22 00:03 -35.63751 -71.69087 36199 ft 453 kts
2026-04-22 00:04 -35.57608 -71.67298 36204 ft 453 kts
2026-04-22 00:04 -35.51468 -71.65523 36217 ft 453 kts
2026-04-22 00:05 -35.45327 -71.63756 36221 ft 453 kts
2026-04-22 00:05 -35.39194 -71.61988 36216 ft 453 kts
2026-04-22 00:06 -35.33061 -71.60213 36214 ft 452 kts
2026-04-22 00:06 -35.26933 -71.58446 36213 ft 452 kts
2026-04-22 00:07 -35.20809 -71.56688 36210 ft 452 kts
2026-04-22 00:07 -35.14682 -71.54927 36204 ft 451 kts
2026-04-22 00:08 -35.08569 -71.53177 36205 ft 452 kts
2026-04-22 00:08 -35.02485 -71.51435 36198 ft 451 kts
2026-04-22 00:09 -34.96371 -71.49690 36196 ft 451 kts
2026-04-22 00:09 -34.90262 -71.47949 36193 ft 451 kts
2026-04-22 00:10 -34.84155 -71.46214 36192 ft 450 kts
2026-04-22 00:10 -34.78057 -71.44479 36195 ft 450 kts
2026-04-22 00:11 -34.71961 -71.42736 36195 ft 449 kts
2026-04-22 00:11 -34.65870 -71.40994 36189 ft 451 kts
2026-04-22 00:12 -34.59917 -71.38264 36186 ft 459 kts 13°
2026-04-22 00:12 -34.56952 -71.36794 36011 ft 459 kts 13°
2026-04-22 00:12 -34.54029 -71.35348 35768 ft 459 kts 13°
2026-04-22 00:12 -34.51073 -71.33891 35524 ft 458 kts 13°
2026-04-22 00:13 -34.48077 -71.32414 35282 ft 458 kts 13°
2026-04-22 00:13 -34.45127 -71.30960 35047 ft 458 kts 13°
2026-04-22 00:13 -34.42208 -71.29527 34721 ft 458 kts 13°
2026-04-22 00:13 -34.39223 -71.28067 33684 ft 466 kts 13°
2026-04-22 00:14 -34.36205 -71.26597 32670 ft 470 kts 13°
2026-04-22 00:14 -34.33163 -71.25113 31693 ft 473 kts 14°
2026-04-22 00:14 -34.30107 -71.23618 30800 ft 473 kts 14°
2026-04-22 00:14 -34.27079 -71.22127 29450 ft 469 kts 14°
2026-04-22 00:15 -34.24064 -71.20639 28283 ft 468 kts 14°
2026-04-22 00:15 -34.21053 -71.19160 27471 ft 465 kts 14°
2026-04-22 00:15 -34.18072 -71.17699 26782 ft 459 kts 15°
2026-04-22 00:15 -34.15092 -71.16248 26045 ft 455 kts 14°
2026-04-22 00:16 -34.12120 -71.14805 25345 ft 451 kts 15°
2026-04-22 00:16 -34.09208 -71.13391 24649 ft 448 kts 15°
2026-04-22 00:16 -34.06321 -71.11985 23962 ft 445 kts 15°
2026-04-22 00:16 -34.03454 -71.10594 23214 ft 443 kts 15°
2026-04-22 00:17 -34.00618 -71.09219 22570 ft 437 kts 15°
2026-04-22 00:17 -33.97811 -71.07854 21946 ft 432 kts 15°
2026-04-22 00:17 -33.95039 -71.06504 21325 ft 427 kts 16°
2026-04-22 00:17 -33.92301 -71.05171 20730 ft 422 kts 16°
2026-04-22 00:18 -33.89618 -71.03862 20156 ft 407 kts 16°
2026-04-22 00:18 -33.87048 -71.02607 19641 ft 390 kts 16°
2026-04-22 00:18 -33.84592 -71.01410 19151 ft 373 kts 16°
2026-04-22 00:18 -33.82231 -71.00264 18691 ft 358 kts 16°
2026-04-22 00:19 -33.79969 -70.99168 18394 ft 341 kts 16°
2026-04-22 00:19 -33.77831 -70.98131 18238 ft 320 kts 16°
2026-04-22 00:19 -33.75884 -70.97186 18112 ft 297 kts 15°
2026-04-22 00:19 -33.73946 -70.96247 17796 ft 282 kts 15°
2026-04-22 00:20 -33.72118 -70.95374 17294 ft 275 kts 15°
2026-04-22 00:20 -33.70350 -70.94533 16762 ft 272 kts 15°
2026-04-22 00:20 -33.68602 -70.93701 16272 ft 268 kts 15°
2026-04-22 00:20 -33.66876 -70.92878 15754 ft 265 kts 15°
2026-04-22 00:21 -33.65171 -70.92062 15259 ft 262 kts 15°
2026-04-22 00:21 -33.63467 -70.91242 14769 ft 259 kts 16°
2026-04-22 00:21 -33.61803 -70.90441 14300 ft 256 kts 16°
2026-04-22 00:21 -33.60160 -70.89653 13959 ft 253 kts 16°
2026-04-22 00:22 -33.58525 -70.88870 13613 ft 253 kts 16°
2026-04-22 00:22 -33.56906 -70.88062 13236 ft 253 kts 20°
2026-04-22 00:22 -33.55367 -70.87036 12851 ft 253 kts 26°
2026-04-22 00:22 -33.53873 -70.85932 12456 ft 251 kts 26°
2026-04-22 00:23 -33.52393 -70.84844 12061 ft 249 kts 26°
2026-04-22 00:23 -33.50924 -70.83764 11651 ft 246 kts 26°
2026-04-22 00:23 -33.49473 -70.82697 11266 ft 244 kts 27°
2026-04-22 00:23 -33.48014 -70.81622 10991 ft 241 kts 27°
2026-04-22 00:24 -33.46607 -70.80586 10848 ft 241 kts 27°
2026-04-22 00:24 -33.45160 -70.79523 10721 ft 240 kts 27°
2026-04-22 00:24 -33.43755 -70.78492 10613 ft 240 kts 27°
2026-04-22 00:24 -33.42325 -70.77443 10504 ft 240 kts 27°
2026-04-22 00:25 -33.40925 -70.76417 10398 ft 239 kts 27°
2026-04-22 00:25 -33.39508 -70.75379 10294 ft 238 kts 27°
2026-04-22 00:25 -33.38096 -70.74344 10187 ft 238 kts 27°
2026-04-22 00:25 -33.36691 -70.73315 10089 ft 237 kts 27°
2026-04-22 00:26 -33.35289 -70.72289 9970 ft 236 kts 27°
2026-04-22 00:26 -33.33878 -70.71256 9577 ft 235 kts 28°
2026-04-22 00:26 -33.32471 -70.70234 9007 ft 232 kts 25°
2026-04-22 00:26 -33.30993 -70.69530 8428 ft 229 kts 12°
2026-04-22 00:27 -33.29428 -70.69292 8055 ft 224 kts 359°
2026-04-22 00:27 -33.28397 -70.69373 8000 ft 228 kts 354°
2026-04-22 00:27 -33.26805 -70.69568 7999 ft 230 kts 354°
2026-04-22 00:27 -33.25210 -70.69760 8000 ft 231 kts 354°
2026-04-22 00:28 -33.23609 -70.69952 7998 ft 231 kts 354°
2026-04-22 00:28 -33.22010 -70.70143 7995 ft 231 kts 354°
2026-04-22 00:28 -33.20399 -70.70336 7990 ft 232 kts 354°
2026-04-22 00:28 -33.18814 -70.70524 7986 ft 223 kts 354°
2026-04-22 00:29 -33.17317 -70.70680 7977 ft 211 kts 355°
2026-04-22 00:29 -33.15863 -70.70829 7987 ft 208 kts 355°
2026-04-22 00:29 -33.14424 -70.70974 7973 ft 208 kts 355°
2026-04-22 00:29 -33.12981 -70.71095 7845 ft 207 kts 358°
2026-04-22 00:30 -33.11539 -70.71111 7719 ft 207 kts 360°
2026-04-22 00:30 -33.10120 -70.71104 7595 ft 207 kts 360°
2026-04-22 00:30 -33.08675 -70.71118 7470 ft 207 kts 353°
2026-04-22 00:30 -33.07369 -70.71775 7347 ft 208 kts 318°
2026-04-22 00:31 -33.06631 -70.73234 7114 ft 211 kts 283°
2026-04-22 00:31 -33.06693 -70.74991 6854 ft 216 kts 260°
2026-04-22 00:31 -33.07003 -70.76745 6603 ft 216 kts 260°
2026-04-22 00:31 -33.07304 -70.78445 6500 ft 203 kts 260°
2026-04-22 00:32 -33.07688 -70.80020 6354 ft 194 kts 242°
2026-04-22 00:32 -33.08576 -70.81199 6115 ft 192 kts 214°
2026-04-22 00:32 -33.09791 -70.81769 5879 ft 185 kts 186°
2026-04-22 00:32 -33.11052 -70.81773 5748 ft 177 kts 176°
2026-04-22 00:33 -33.12256 -70.81706 5623 ft 169 kts 176°
2026-04-22 00:33 -33.13430 -70.81643 5390 ft 164 kts 176°
2026-04-22 00:33 -33.14551 -70.81583 5135 ft 161 kts 176°
2026-04-22 00:33 -33.15643 -70.81525 5018 ft 155 kts 176°
2026-04-22 00:34 -33.16712 -70.81467 4992 ft 153 kts 176°
2026-04-22 00:34 -33.17784 -70.81410 4988 ft 154 kts 176°
2026-04-22 00:34 -33.18843 -70.81354 4988 ft 154 kts 176°
2026-04-22 00:34 -33.19923 -70.81296 4894 ft 154 kts 176°
2026-04-22 00:35 -33.20987 -70.81239 4725 ft 152 kts 176°
2026-04-22 00:35 -33.22043 -70.81183 4543 ft 151 kts 176°
2026-04-22 00:35 -33.23090 -70.81127 4347 ft 150 kts 176°
2026-04-22 00:35 -33.24131 -70.81071 4151 ft 149 kts 176°
2026-04-22 00:36 -33.25165 -70.81016 3959 ft 148 kts 176°
2026-04-22 00:36 -33.26193 -70.80961 3769 ft 147 kts 176°
2026-04-22 00:36 -33.27213 -70.80906 3574 ft 146 kts 177°
2026-04-22 00:36 -33.28226 -70.80852 3388 ft 145 kts 177°
2026-04-22 00:37 -33.29231 -70.80798 3193 ft 144 kts 177°
2026-04-22 00:37 -33.30226 -70.80745 2995 ft 142 kts 177°
2026-04-22 00:37 -33.31209 -70.80692 2807 ft 141 kts 177°
2026-04-22 00:37 -33.32189 -70.80640 2615 ft 140 kts 176°
2026-04-22 00:38 -33.33159 -70.80588 2419 ft 139 kts 176°
2026-04-22 00:38 -33.34127 -70.80536 2221 ft 139 kts 176°
2026-04-22 00:38 -33.35092 -70.80484 2027 ft 139 kts 176°
2026-04-22 00:38 -33.36045 -70.80439 1833 ft 139 kts 176°
2026-04-22 00:39 -33.37012 -70.80383 1649 ft 139 kts 176°
2026-04-22 00:39 -33.37944 -70.80333 1573 ft 119 kts 177°
2026-04-22 00:39 -33.38600 -70.80297 1574 ft 69 kts 177°
2026-04-22 00:39 -33.38980 -70.80275 1574 ft 48 kts 176°
2026-04-22 00:40 -33.39195 -70.80256 1573 ft 23 kts 171°
2026-04-22 00:40 -33.39331 -70.80198 1571 ft 16 kts 147°
2026-04-22 00:40 -33.39413 -70.80137 1568 ft 11 kts 149°
2026-04-22 00:40 -33.39485 -70.80081 1566 ft 12 kts 141°
2026-04-22 00:41 -33.39529 -70.79997 1565 ft 8 kts 102°
2026-04-22 00:41 -33.39531 -70.79928 1565 ft 8 kts 90°
2026-04-22 00:41 -33.39529 -70.79865 1565 ft 7 kts 86°
2026-04-22 00:41 -33.39525 -70.79801 1565 ft 9 kts 86°
2026-04-22 00:42 -33.39522 -70.79724 1565 ft 10 kts 87°
2026-04-22 00:42 -33.39565 -70.79699 1564 ft 8 kts 174°
2026-04-22 00:42 -33.39605 -70.79696 1565 ft 0 kts 178°